Regional Weather Roundup
Issued by NWS

Home | Current Version | Previous Version | Graphics & Text | Print | Product List | Glossary Off
Versions: 1 2 3 4 5 6 7 8 9 10 11 12 13 14 15 16 17 18 19 20 21 22 23 24 25 26 27 28 29 30 31 32 33 34 35 36 37 38 39 40 41 42 43 44 45 46 47 48 49 50

000
ASUS43 KTOP 302159
RWRKS

WEATHER ROUNDUP FOR KANSAS
NATIONAL WEATHER SERVICE GOODLAND KS
500 PM CDT SAT JUL 30 2016

NOTE:  "FAIR" INDICATES FEW OR NO CLOUDS BELOW 12,000 FEET WITH NO
SIGNIFICANT WEATHER AND/OR OBSTRUCTIONS TO VISIBILITY.

KSZ001>006-013>018-027>032-041>047-302300-
NORTHWEST KANSAS

CITY           SKY/WX    TMP DP  RH WIND       PRES   REMARKS
GOODLAND       SUNNY     89  60  37 SE15G23   29.93F
HAYS           SUNNY     90  64  43 S9        29.91F
HILL CITY      SUNNY     89  67  47 SE12G20   29.91F
RUSSELL        MOSUNNY   89  65  44 SE14      29.91F
$$

KSZ061>065-074>080-084>089-302300-
SOUTHWEST KANSAS

CITY           SKY/WX    TMP DP  RH WIND       PRES   REMARKS
DODGE CITY     SUNNY     93  63  36 SE12      29.92F
ELKHART          N/A     93  65  39 S16         N/A  HX  95
GARDEN CITY    SUNNY     91  64  40 S12G21    29.90F
GREAT BEND     SUNNY     88  68  51 SE14      29.92S
LIBERAL        SUNNY     95  64  36 S18       29.92F HX  97
$$

KSZ066>073-081>083-090>101-302300-
SOUTHEAST KANSAS

CITY           SKY/WX    TMP DP  RH WIND       PRES   REMARKS
CHANUTE        SUNNY     87  71  58 E6        29.93F
COFFEYVILLE    MOSUNNY   88  70  55 VRB5      29.92F
HUTCHINSON     SUNNY     88  66  48 SE8       29.93F
NEWTON         SUNNY     86  69  56 SE9       29.95F
PARSONS        SUNNY     88  68  51 VRB5      29.94F
WICHITA INTL   MOSUNNY   89  69  51 S10       29.93F
WICHITA JABRA  SUNNY     88  66  48 SE8       29.93F
WINFIELD       SUNNY     88  71  57 S8        29.94F
$$

KSZ007>012-019>026-033>040-048>060-102>105-302300-
NORTHEAST KANSAS

CITY           SKY/WX    TMP DP  RH WIND       PRES   REMARKS
CONCORDIA      SUNNY     83  68  60 E10       29.94F
EMPORIA        MOSUNNY   87  70  56 SE14      29.94F
LAWRENCE       CLOUDY    79  69  71 VRB5      29.96F
MANHATTAN      SUNNY     83  69  62 E13       29.94F
OLATHE IND     CLOUDY    82  70  66 CALM      29.97F
OLATHE EXE     LGT RAIN  80  70  71 S6        29.96F
SALINA         MOSUNNY   92  68  45 SE15      29.92F HX  96
TOPEKA BILLARD   N/A     81  68  64 E9        29.96F
TOPEKA FORBES  SUNNY     83  68  60 E10       29.96F
$$



USA.gov is the U.S. government's official web portal to all federal, state and local government web resources and services.